Location: Crescent
(42.8242°N, 73.7329°W)
Time: 20:54:40
(UTC+00:00)

Vanguard 1 Rocket - Visible Passes

Search period start: 18 February 2026 00:00
Search period end: 28 February 2026 00:00
Orbit: 652 x 4215 km, 34.3° (Epoch: 18 February)

Date Brightness Start Highest point End Pass type
(mag) Time Alt. Az. Time Alt. Az. Time Alt. Az.
18 Feb 11.4 00:56:46 10° W 01:14:34 33° SW 01:35:26 10° SSE visible
18 Feb 11.2 23:42:14 10° W 23:59:28 43° SSW 00:22:34 10° SSE visible
19 Feb 11.8 02:15:23 10° W 02:28:29 18° SW 02:42:25 10° SSW visible
19 Feb 11.0 22:28:49 10° W 22:44:17 51° SSW 23:08:09 10° SE visible
20 Feb 11.6 00:57:48 10° W 01:13:56 27° SW 01:33:04 10° S visible
20 Feb 11.4 23:42:55 10° W 23:59:01 37° SSW 00:20:50 10° SSE visible
21 Feb 11.9 02:19:33 10° WSW 02:27:48 13° SW 02:36:31 10° SSW visible
21 Feb 11.1 22:29:23 10° W 22:44:04 45° SSW 23:06:49 10° SE visible
22 Feb 11.8 00:59:22 10° W 01:13:22 22° SW 01:29:58 10° S visible
22 Feb 11.5 23:43:50 10° W 23:58:39 31° SW 00:18:40 10° SSE visible
23 Feb 11.3 22:30:04 10° W 22:43:53 39° SSW 23:05:12 10° SSE visible
24 Feb 12.0 01:01:55 10° WSW 01:12:55 16° SW 01:25:40 10° SSW visible
24 Feb 11.7 23:45:09 10° W 23:58:21 25° SW 00:15:54 10° S visible
25 Feb 11.5 22:30:57 10° W 22:43:46 33° SSW 23:03:12 10° SSE visible
26 Feb 12.1 01:07:25 10° WSW 01:12:36 11° SW 01:18:11 10° SSW visible
26 Feb 11.9 23:47:05 10° WSW 23:58:08 19° SW 00:12:18 10° S visible
